Location: Foligno
(42.9600°N, 12.7050°E)
Time: 07:22:47
(UTC+02:00)

ISS - Pass Details

Date: 21 May 2018
Orbit: 402 x 407 km, 51.6° (Epoch: 24 May)

Event Time Altitude Azimuth Distance (km) Brightness Sun altitude
Rises 22:14:07 0° 235° (SW) 2,309 0.1 -15.4°
Reaches altitude 10° 22:16:11 10° 235° (SW) 1,452 -0.9 -15.7°
Maximum altitude 22:19:26 89° 145° (SE) 407 -3.9 -16.1°
Drops below altitude 10° 22:22:43 10° 57° (ENE) 1,457 -1.1 -16.5°
Sets 22:24:48 0° 57° (ENE) 2,319 0.0 -16.7°
